• Em Portugal
  • Lista de países
  • Para 7 dias
  • Temperatura da água
  • Mapas de satélite
  • Mapa do tempo
  • Widgets de tempo
  • user-avatar
    Iniciar Sessão

    Previsão horária em Sarajevo

    Hoje, 22 Abril, Domingo

    Tempo Temperatura Precipitação Vento Pressão Humidade
    00:00 +11°C° 0 mm 1 m/s 690 mmHg 74%
    01:00 +10°C° 0 mm 1 m/s 690 mmHg 72%
    02:00 +10°C° 0 mm 1 m/s 690 mmHg 72%
    03:00 +10°C° 0 mm 1 m/s 690 mmHg 72%
    04:00 +10°C° 0 mm 1 m/s 690 mmHg 72%
    05:00 +11°C° 0 mm 1 m/s 690 mmHg 69%
    06:00 +13°C° 0 mm 1 m/s 690 mmHg 65%
    07:00 +14°C° 0 mm 1 m/s 691 mmHg 60%
    08:00 +16°C° 0 mm 1 m/s 691 mmHg 54%
    09:00 +19°C° 0 mm 1 m/s 691 mmHg 48%
    10:00 +21°C° 0 mm 1 m/s 691 mmHg 42%
    11:00 +22°C° 0 mm 1 m/s 691 mmHg 41%
    12:00 +22°C° 0 mm 1 m/s 691 mmHg 41%
    13:00 +23°C° 0 mm 2 m/s 691 mmHg 40%
    14:00 +21°C° 0 mm 2 m/s 691 mmHg 42%
    15:00 +21°C° 0 mm 2 m/s 690 mmHg 45%
    16:00 +20°C° 0 mm 2 m/s 690 mmHg 48%
    17:00 +19°C° 0 mm 1 m/s 690 mmHg 57%
    18:00 +16°C° 0 mm 1 m/s 689 mmHg 67%
    19:00 +14°C° 0 mm 1 m/s 689 mmHg 77%
    20:00 +13°C° 0 mm 1 m/s 689 mmHg 80%
    21:00 +13°C° 0 mm 1 m/s 689 mmHg 83%
    22:00 +12°C° 0 mm 1 m/s 689 mmHg 86%
    23:00 +12°C° 0 mm 1 m/s 689 mmHg 86%

    Amanhã, 23 Abril, Segunda-feira

    Tempo Temperatura Precipitação Vento Pressão Humidade
    00:00 +11°C° 0 mm 1 m/s 689 mmHg 87%
    01:00 +11°C° 0 mm 1 m/s 689 mmHg 88%
    02:00 +11°C° 0 mm 1 m/s 689 mmHg 87%
    03:00 +11°C° 0 mm 1 m/s 689 mmHg 87%
    04:00 +10°C° 0 mm 1 m/s 689 mmHg 86%
    05:00 +12°C° 0 mm 1 m/s 689 mmHg 80%
    06:00 +13°C° 0 mm 0 m/s 689 mmHg 74%
    07:00 +14°C° 0 mm 0 m/s 690 mmHg 68%
    08:00 +16°C° 0 mm 0 m/s 690 mmHg 61%
    09:00 +20°C° 0 mm 1 m/s 691 mmHg 53%
    10:00 +23°C° 0 mm 1 m/s 691 mmHg 45%
    11:00 +23°C° 0 mm 1 m/s 691 mmHg 43%
    12:00 +24°C° 0 mm 1 m/s 691 mmHg 42%
    13:00 +24°C° 0 mm 1 m/s 691 mmHg 41%
    14:00 +24°C° 0 mm 1 m/s 690 mmHg 43%
    15:00 +23°C° 0 mm 1 m/s 690 mmHg 45%
    16:00 +23°C° 0 mm 1 m/s 690 mmHg 47%
    17:00 +21°C° 0 mm 1 m/s 689 mmHg 56%
    18:00 +18°C° 0 mm 1 m/s 689 mmHg 66%
    19:00 +15°C° 0 mm 1 m/s 689 mmHg 75%
    20:00 +15°C° 0 mm 1 m/s 689 mmHg 77%
    21:00 +14°C° 0 mm 1 m/s 689 mmHg 80%
    22:00 +12°C° 0 mm 0 m/s 689 mmHg 82%
    23:00 +13°C° 0 mm 1 m/s 689 mmHg 82%

    Depois de amanhã, 24 Abril, Terça-feira

    Tempo Temperatura Precipitação Vento Pressão Humidade
    00:00 +13°C° 0 mm 1 m/s 689 mmHg 82%
    01:00 +13°C° 0 mm 1 m/s 689 mmHg 83%
    02:00 +12°C° 0 mm 1 m/s 689 mmHg 83%
    03:00 +12°C° 0 mm 1 m/s 689 mmHg 83%
    04:00 +12°C° 0 mm 1 m/s 689 mmHg 83%
    05:00 +12°C° 0 mm 0 m/s 689 mmHg 78%
    06:00 +14°C° 0 mm 0 m/s 690 mmHg 73%
    07:00 +15°C° 0 mm 0 m/s 691 mmHg 68%
    08:00 +17°C° 0 mm 0 m/s 691 mmHg 61%
    09:00 +21°C° 0 mm 1 m/s 692 mmHg 54%
    10:00 +22°C° 0 mm 1 m/s 692 mmHg 48%
    11:00 +23°C° 0,1 mm 1 m/s 692 mmHg 47%
    12:00 +23°C° 0,1 mm 2 m/s 692 mmHg 47%
    13:00 +23°C° 0,1 mm 2 m/s 692 mmHg 46%
    14:00 +21°C° 0,3 mm 2 m/s 691 mmHg 50%
    15:00 +21°C° 0,3 mm 2 m/s 691 mmHg 54%
    16:00 +20°C° 0,3 mm 2 m/s 691 mmHg 58%
    17:00 +19°C° 0,2 mm 1 m/s 691 mmHg 66%
    18:00 +16°C° 0,2 mm 1 m/s 690 mmHg 73%
    19:00 +14°C° 0,2 mm 0 m/s 690 mmHg 81%
    20:00 +13°C° 0,3 mm 0 m/s 690 mmHg 83%
    21:00 +13°C° 0,3 mm 0 m/s 690 mmHg 84%
    22:00 +13°C° 0,3 mm 0 m/s 691 mmHg 85%
    23:00 +12°C° 0,1 mm 0 m/s 690 mmHg 86%

    25 Abril, Quarta-feira

    Tempo Temperatura Precipitação Vento Pressão Humidade
    00:00 +12°C° 0,1 mm 0 m/s 690 mmHg 86%
    01:00 +12°C° 0,1 mm 0 m/s 690 mmHg 86%
    02:00 +12°C° 0 mm 1 m/s 690 mmHg 87%
    03:00 +12°C° 0 mm 1 m/s 690 mmHg 87%
    04:00 +12°C° 0 mm 1 m/s 690 mmHg 87%
    05:00 +13°C° 0 mm 1 m/s 690 mmHg 84%
    06:00 +13°C° 0 mm 0 m/s 690 mmHg 80%
    07:00 +15°C° 0 mm 0 m/s 691 mmHg 76%
    08:00 +18°C° 0,1 mm 1 m/s 691 mmHg 70%
    09:00 +20°C° 0,1 mm 1 m/s 691 mmHg 63%
    10:00 +22°C° 0,1 mm 1 m/s 692 mmHg 56%
    11:00 +22°C° 0,3 mm 1 m/s 691 mmHg 54%
    12:00 +23°C° 0,3 mm 2 m/s 691 mmHg 51%
    13:00 +23°C° 0,3 mm 2 m/s 691 mmHg 48%
    14:00 +23°C° 0,2 mm 2 m/s 691 mmHg 50%
    15:00 +21°C° 0,2 mm 2 m/s 690 mmHg 52%
    16:00 +21°C° 0,2 mm 2 m/s 690 mmHg 53%
    17:00 +20°C° 0,2 mm 1 m/s 689 mmHg 62%
    18:00 +18°C° 0,2 mm 1 m/s 689 mmHg 70%
    19:00 +15°C° 0,2 mm 1 m/s 688 mmHg 78%
    20:00 +14°C° 0 mm 1 m/s 688 mmHg 80%
    21:00 +13°C° 0 mm 1 m/s 689 mmHg 82%
    22:00 +13°C° 0 mm 1 m/s 689 mmHg 84%
    23:00 +12°C° 0 mm 1 m/s 689 mmHg 84%

    26 Abril, Quinta-feira

    Tempo Temperatura Precipitação Vento Pressão Humidade
    00:00 +12°C° 0 mm 1 m/s 688 mmHg 84%
    01:00 +12°C° 0 mm 1 m/s 688 mmHg 84%
    02:00 +11°C° 0 mm 1 m/s 688 mmHg 82%
    03:00 +11°C° 0 mm 1 m/s 688 mmHg 80%
    04:00 +11°C° 0 mm 1 m/s 687 mmHg 78%
    05:00 +12°C° 0 mm 1 m/s 688 mmHg 73%
    06:00 +13°C° 0 mm 0 m/s 688 mmHg 68%
    07:00 +14°C° 0 mm 0 m/s 689 mmHg 64%
    08:00 +16°C° 0 mm 0 m/s 689 mmHg 58%
    09:00 +19°C° 0 mm 0 m/s 689 mmHg 52%
    10:00 +23°C° 0 mm 1 m/s 689 mmHg 46%
    11:00 +23°C° 0 mm 1 m/s 689 mmHg 45%
    12:00 +24°C° 0 mm 1 m/s 689 mmHg 43%
    13:00 +25°C° 0 mm 1 m/s 688 mmHg 42%
    14:00 +24°C° 0 mm 1 m/s 688 mmHg 45%
    15:00 +23°C° 0 mm 1 m/s 687 mmHg 49%
    16:00 +22°C° 0 mm 1 m/s 687 mmHg 52%
    17:00 +20°C° 0,1 mm 1 m/s 686 mmHg 62%
    18:00 +18°C° 0,1 mm 1 m/s 686 mmHg 71%
    19:00 +15°C° 0,1 mm 1 m/s 686 mmHg 81%
    20:00 +15°C° 0 mm 1 m/s 686 mmHg 83%
    21:00 +14°C° 0 mm 1 m/s 686 mmHg 85%
    22:00 +13°C° 0 mm 1 m/s 686 mmHg 88%
    23:00 +13°C° 0 mm 1 m/s 686 mmHg 88%

    27 Abril, Sexta-feira

    Tempo Temperatura Precipitação Vento Pressão Humidade
    00:00 +13°C° 0 mm 1 m/s 686 mmHg 89%
    01:00 +12°C° 0 mm 1 m/s 686 mmHg 89%
    02:00 +12°C° 0 mm 1 m/s 686 mmHg 90%
    03:00 +12°C° 0 mm 1 m/s 686 mmHg 91%
    04:00 +12°C° 0 mm 2 m/s 686 mmHg 91%
    05:00 +13°C° 0 mm 2 m/s 686 mmHg 90%
    06:00 +13°C° 0 mm 2 m/s 687 mmHg 88%
    07:00 +14°C° 0 mm 2 m/s 687 mmHg 86%
    08:00 +15°C° 0 mm 2 m/s 687 mmHg 82%
    09:00 +16°C° 0 mm 2 m/s 688 mmHg 78%
    10:00 +17°C° 0 mm 2 m/s 688 mmHg 74%
    11:00 +18°C° 0 mm 2 m/s 688 mmHg 69%
    12:00 +19°C° 0 mm 2 m/s 688 mmHg 64%
    13:00 +20°C° 0 mm 2 m/s 688 mmHg 59%
    14:00 +20°C° 0,1 mm 2 m/s 687 mmHg 61%
    15:00 +19°C° 0,1 mm 2 m/s 687 mmHg 63%
    16:00 +19°C° 0,1 mm 2 m/s 686 mmHg 66%
    17:00 +17°C° 0,1 mm 2 m/s 686 mmHg 73%
    18:00 +16°C° 0,1 mm 1 m/s 686 mmHg 80%
    19:00 +14°C° 0,1 mm 1 m/s 686 mmHg 87%
    20:00 +14°C° 0 mm 1 m/s 686 mmHg 88%
    21:00 +13°C° 0 mm 1 m/s 686 mmHg 90%
    22:00 +12°C° 0 mm 1 m/s 686 mmHg 92%
    23:00 +12°C° 0 mm 1 m/s 686 mmHg 92%
    Mostrar mais